Regional Weather Roundup
Issued by NWS

Home | Current Version | Previous Version | Text Only | Print | Product List | Glossary On
Versions: 1 2 3 4 5 6 7 8 9 10 11 12 13 14 15 16 17 18 19 20 21 22 23 24 25 26 27 28 29 30 31 32 33 34 35 36 37 38 39 40 41 42 43 44 45 46 47 48 49 50
000
ASUS43 KDTX 150710
RWRMI
MICHIGAN HOURLY REGIONAL WEATHER ROUNDUP
NATIONAL WEATHER SERVICE DETROIT/PONTIAC MI
ISSUED BY NATIONAL WEATHER SERVICE GRAND RAPIDS MI
300 AM EDT WED AUG 15 2018

NOTE: "FAIR" INDICATES FEW OR NO CLOUDS BELOW 12,000 FEET WITH NO
SIGNIFICANT WEATHER AND/OR OBSTRUCTION TO VISIBILITY.

MIZ047>049-052>055-059>063-066>070-074>076-081>083-150800-
SOUTHEAST LOWER MICHIGAN

CITY           SKY/WX    TMP DP  RH WIND       PRES   REMARKS
ADRIAN         FAIR      68  66  93 W3        29.99S
ALMA           FAIR      61  61 100 CALM      29.96S FOG
ANN ARBOR      FAIR      62  62 100 SW5       29.97R
BAD AXE        FAIR      69  64  85 CALM      29.93F
DETROIT CITY   FAIR      74  65  73 W3        29.95S
DETROIT        MOCLDY    71  64  78 SW5       29.96S
FLINT          FAIR      65  63  93 CALM      29.97S
GROSSE ILE     FAIR      71  66  86 W3        29.96S
HILLSDALE      FAIR      64  63  94 CALM      29.99F FOG
HOWELL         FAIR      67  65  94 CALM      29.98S

CITY           SKY/WX    TMP DP  RH WIND       PRES   REMARKS
JACKSON        FAIR      68  66  93 CALM      29.98F
LANSING        FAIR      69  66  90 CALM      29.98S
MASON          FAIR      67  64  88 CALM      29.97F
MONROE         FAIR      66  64  93 W9        29.96S FOG
PONTIAC        FAIR      70  66  87 W3        29.96S
PORT HOPE        N/A     72  65  78 W6        29.91S
PORT HURON     FAIR      68  63  83 CALM      29.94S
TRI CITIES     FAIR      68  65  90 SW8       29.95F
YPSILANTI      FAIR      70  66  87 W5        29.97S
$$
MIZ043>046-050>051-056>058-064>065-071>073-077>080-150800-
SOUTHWEST LOWER MICHIGAN

CITY           SKY/WX    TMP DP  RH WIND       PRES   REMARKS
BATTLE CREEK   FAIR      71  66  84 CALM      29.98F
BENTON HARBOR  FAIR      68  66  93 CALM      29.95S
BIG RAPIDS     FAIR      67  64  89 S5        29.95S
COLDWATER      FAIR      69  68  98 CALM      29.99S
HOLLAND        FAIR      69  64  84 CALM      29.95F
GRAND RAPIDS   FAIR      68  66  93 SE3       29.96S
KALAMAZOO      FAIR      71  66  84 S3        29.97F
MARSHALL       FAIR      65  64  95 CALM      29.97F FOG
MOUNT PLEASANT FAIR      67  64  89 SW3       29.94S
MUSKEGON       FAIR      69  67  93 SE3       29.95S
STURGIS        FAIR      70  65  84 CALM      29.98S
$$
MIZ016>042-150800-
NORTHERN LOWER MICHIGAN

CITY           SKY/WX    TMP DP  RH WIND       PRES   REMARKS
ALPENA         FAIR      65  62  90 CALM      29.91F
BEAVER ISLAND  FAIR      62  58  87 CALM      29.92F
BELLAIRE       FAIR      65  62  90 CALM      29.92S
CADILLAC       FAIR      64  62  95 CALM      29.96S
CHARLEVOIX     CLOUDY    72  67  87 N3        29.94S
GAYLORD        FAIR      66  60  81 CALM      29.94F
HOUGHTON LAKE  FAIR      71  64  78 SW6       29.95F
MANISTEE       FAIR      66  65  96 E3        29.92F FOG
OSCODA         FAIR      69  60  73 CALM      29.92S
PELLSTON       MOCLDY    68  65  90 N8        29.92S
TRAVERSE CITY  FAIR      74  67  78 CALM      29.90S
LUDINGTON      FAIR      74  70  89 SW5       29.92F
$$
MIZ007>008-015-150800-
EASTERN UPPER MICHIGAN

CITY           SKY/WX    TMP DP  RH WIND       PRES   REMARKS
KINROSS        CLOUDY    63  59  87 NW6       29.92S
MACKINAC ISLAN CLOUDY    66  55  67 CALM      29.91S
NEWBERRY       MOCLDY    61  60  97 CALM      29.92R
S. S. MARIE    FAIR      63  59  87 W5        29.90F
$$
MIZ004>006-011>014-085-150800-
CENTRAL UPPER MICHIGAN

CITY           SKY/WX    TMP DP  RH WIND       PRES   REMARKS
MANISTIQUE     MOCLDY    59  58  94 N3        29.93S
ESCANABA       FAIR      61  57  88 NW5       29.93F
MENOMINEE      FAIR      63  60  90 CALM      29.93F
SAWYER-GWINN   FAIR      57  55  93 N3        29.95F
$$
MIZ001>003-009>011-084-150800-
WESTERN UPPER MICHIGAN

CITY           SKY/WX    TMP DP  RH WIND       PRES   REMARKS
IRON MOUNTAIN  FAIR      61  59  93 CALM      29.94S FOG
HOUGHTON       FAIR      60  53  77 NE7       29.95S
COPPER HARBOR    N/A     60  55  83 CALM      29.96S
IRONWOOD       FOG       55  55 100 CALM      29.95F VSB 1
$$

ABBREVIATIONS USED IN REMARKS
   TC - TEMPERATURE IN CELSIUS
  WCI - WIND CHILL INDEX
   HX - HEAT INDEX
  VSB - VISIBILITY




USA.gov is the U.S. government's official web portal to all federal, state and local government web resources and services.